Regional Weather Roundup
Issued by NWS Wakefield, VA

Home | Current Version | Previous Version | Graphics & Text | Print | Product List | Glossary On
Versions: 1 2 3 4 5 6 7 8 9 10 11 12 13 14 15 16 17 18 19 20 21 22 23 24 25 26 27 28 29 30 31 32 33 34 35 36 37 38 39 40 41 42 43 44 45 46 47 48 49 50
000
ASUS41 KAKQ 020214
RWRAKQ

REGIONAL WEATHER ROUNDUP
NATIONAL WEATHER SERVICE WAKEFIELD VA
1000 PM EDT WED APR 01 2015

Note: "fair" indicates few or no clouds below 12,000 feet with no
significant weather and/or obstructions to visibility. * = Denotes
station may not report precipitation (e.g., rain,snow,etc.),
thunder or fog.

VAZ042-051-052>054-056-020300-
NORTHERN VIRGINIA

CITY           SKY/WX    TMP DP  RH WIND       PRES   REMARKS
WASH NATIONAL  CLEAR     52  34  50 S5        30.23R
DULLES         CLEAR     42  28  57 S3        30.21R
FORT BELVOIR   CLEAR     43  27  54 CALM      30.22R
QUANTICO       CLEAR     49  33  54 SW3       30.24R
FREDERICKSBRG* CLEAR     47  31  53 S6        30.22S
STAFFORD*      CLEAR     40  26  55 CALM      30.27R
WARRENTON      CLEAR     36  33  89 CALM      30.22R
CULPEPER*      CLEAR     41  32  70 CALM      30.23R
MANASSAS*      CLEAR     43  34  70 CALM      30.22R
LEESBURG*      CLEAR     45  32  61 CALM      30.23R
WINCHESTER     CLEAR     45  23  42 CALM      30.20R
FRONT ROYAL*   FAIR      43  28  56 CALM      30.20R
LURAY*         FAIR      46  30  53 CALM      30.20R
$$

VAZ048-049-060>072-079>083-020300-
CENTRAL AND SOUTH CENTRAL VIRGINIA

CITY           SKY/WX    TMP DP  RH WIND       PRES   REMARKS
RICHMOND       CLEAR     47  30  51 SE6       30.25R
CHESTERFIELD*  NOT AVBL
PETERSBURG*    CLEAR     48  30  49 SE5       30.26R
HANOVER        CLEAR     47  27  45 VRB3      30.26R
TAPPAHANNOCK*  CLEAR     45  27  49 S5        30.26R
QUINTON*       FAIR      46  32  57 S5        30.26R
CHARLOTTSVILLE CLEAR     51  23  33 CALM      30.22R
GORDONSVILLE*  FAIR      42  29  60 CALM      30.22R
ORANGE*        CLEAR     43  32  65 CALM      30.24R
LOUISA*        CLEAR     46  27  46 SE5       30.21R
BUMPASS*       FAIR      49  26  41 SE3       30.23R
FARMVILLE*     CLEAR     53  22  29 CALM      30.21R
CREWE*         FAIR      43  30  59 MISG      30.22R
FORT PICKETT*  FAIR      49  25  39 E7        30.23R
CHASE CITY*    FAIR      47  33  57 SE3       30.22R
CLARKSVILLE*   FAIR      46  32  57 CALM      30.20R
SOUTH HILL*    CLEAR     47  29  50 CALM      30.29R
LAWRENCEVILLE* FAIR      48  29  47 CALM      30.23R
EMPORIA*       CLEAR     46  32  57 E8        30.27R
$$

VAZ088>098-020300-
SOUTHEAST VIRGINIA

CITY           SKY/WX    TMP DP  RH WIND       PRES   REMARKS
NORFOLK        CLEAR     44  29  55 S3        30.27R
VIRGINIA BEACH CLEAR     43  33  68 SE3       30.27R
NORFOLK NAVAL  CLEAR     48  29  47 S5        30.29R
WEST POINT*    CLEAR     44  30  57 CALM      30.29R
SALUDA*        FAIR      42  31  64 S8        30.26R
NEWPORT NEWS   NOT AVBL
LANGLEY AFB    CLEAR     42  30  63 CALM      30.27R
FORT EUSTIS    CLEAR     44  31  61 SE3       30.26R
WILLIAMSBURG*  CLEAR     48  34  57 S7        30.28R
HR EXEC AP*    FAIR      43  32  65 SE5       30.29R
FRANKLIN*      CLEAR     46  32  59 SE6       30.28R
WAKEFIELD      CLEAR     45  30  55 CALM      30.27R
$$

VAZ020-022-025-037-045-020300-
WEST CENTRAL AND SOUTHWEST VIRGINIA

CITY           SKY/WX    TMP DP  RH WIND       PRES   REMARKS
STAUNTON*      CLEAR     49  24  38 CALM      30.23R
WAYNESBORO*    FAIR      48  22  35 CALM      30.21R
HOT SPRINGS VA CLEAR     49   0  13 CALM      30.19R
LYNCHBURG      FAIR      53  27  36 SE3       30.22R
DANVILLE       CLEAR     56  31  38 VRB5      30.21R
SOUTH BOSTON*  FAIR      53  27  37 CALM      30.21R
MARTINSVILLE   CLEAR     48  32  54 CALM      30.22R
ROANOKE        CLEAR     55  20  25 CALM      30.20R
BLACKSBURG     CLEAR     44  22  42 CALM      30.22R
DUBLIN*        CLEAR     51  18  27 CALM      30.20R
MARION*        CLEAR     45  24  43 CALM      30.22R
HILLSVILLE*    CLEAR     53  19  26 SE3       30.20R
RICHLANDS*     FAIR     N/A N/A N/A E5        30.17R
WISE*          PTCLDY    54   7  15 CALM      30.16S
ABINGDON*      PTCLDY    52  24  33 E7        30.15R
$$

MDZ021>025-VAZ099-100-020300-
SOUTHERN MARYLAND AND THE DELMARVA PENINSULA

CITY           SKY/WX    TMP DP  RH WIND       PRES   REMARKS
PATUXENT RIVER CLEAR     40  30  67 CALM      30.24R
BAY BRIDGE APT   N/A     43  34  70 CALM      30.23S
LEONARDTOWN    CLEAR     41  30  65 CALM      30.26R
DOVER          CLEAR     43  30  62 S1        30.23R
GEORGETOWN     CLEAR     41  30  65 S5        30.24R
EASTON         CLEAR     45  33  61 CALM      30.27R
CAMBRIDGE      CLEAR     43  32  65 CALM      30.24R
SALISBURY      CLEAR     38  26  62 S3        30.25R
OCEAN CITY     CLEAR     42  26  53 S7        30.25R
WALLOPS ISLAND CLEAR     40  33  76 S9        30.27R
ACCOMACK*      CLEAR     37  32  81 SE6       30.27R
$$

NCZ012>017-030>032-020300-
NORTH CENTRAL AND EASTERN NORTH CAROLINA

CITY           SKY/WX    TMP DP  RH WIND       PRES   REMARKS
ROANOKE RAPIDS FAIR      48  32  53 E6        30.24R
RALEIGH        PTCLDY    54  30  40 SE6       30.22R
ELIZABETH CITY CLEAR     43  33  68 CALM      30.29R
AHOSKIE*       CLEAR     45  33  64 SE6       30.28R
EDENTON*       CLEAR     45  36  71 E6        30.28R
CURRITUCK*     CLEAR     41  34  76 CALM      30.29R
KILL DEVIL HLS CLEAR     41  33  74 SE3       30.28R
MANTEO         CLEAR     41  31  69 E6        30.29R
CAPE HATTERAS  CLEAR     40  30  67 E6        30.29R
TARBORO*       FAIR      50  34  54 SE7       30.26R
GOLDSBORO      CLEAR     49  43  80 SE3       30.23R
WASHINGTON     CLEAR     47  35  62 E6        30.29R
GREENVILLE     CLEAR     52  37  58 SE8       30.27R
NEW BERN       CLEAR     49  37  63 E7        30.29R
WILMINGTON     CLEAR     53  43  68 E8        30.26R
$$

VAZ048-020300-
ELSEWHERE

CITY           SKY/WX    TMP DP  RH WIND       PRES   REMARKS
HARRISBURG PA  CLEAR     43  29  57 CALM      30.20R
BALTIMORE      CLEAR     50  24  36 NE3       30.21S
ANNAPOLIS      CLEAR     45  36  70 SE7       30.23R
ANDREWS AFB    CLEAR     41  30  65 SE3       30.21R
PHILADELPHIA   CLEAR     49  20  31 N3        30.22S
HENDERSON NC   CLEAR     53  24  32 SE6       30.22R
GREENSBORO     CLEAR     55  29  36 SE6       30.19R
ROCKY MOUNT    CLEAR     47  35  63 CALM      30.24R
$$

VAZ100-020300-
MARINE

STATION/POSITION TIME  TEMP    WIND        PRES    WAVE   SWELL
                       AIR SEA DIR/SP/G            HT/PER HT/PER
                 (UTC) (F)     (DEG/KT/KT) (MB)    (FT/S) (FT/S)
BRANDYWINE LGT   0100   49 41  260/  5/  6 1023.5R
CAPE MAY NJ      0100   44 45  190/  2/  3 1023.1R
LEWES DE         0100   44 45  190/  5/  7 1023.5R
15NM E FENWICK I 0150   41 41              1024.0R   2/10
OCEAN-CITY-INLET 0100   42 43  210/ 11/ 12 1023.8R
WACHAPREAGUE VA  0100   43 51  190/  9/ 11 1024.6R
THOMAS POINT MD  0200                        N/A
COVE POINT MD    0100   49     190/  4/  4 1023.4R
SOLOMONS ISLAND  0100      48                N/A
BISHOPS HEAD MD  0106          150/  9/ 10   N/A
PINEY POINT MD   0100          160/  2/  3   N/A
CAMBRIDGE MD     0100   49 46  190/  2/  3 1023.4R
LEWISETTA VA     0100   47 48              1023.5R
RAPPAHANNOCK LGT 0100          150/ 10/ 11 1024.9R
STINGRAY PT      0200   45 45  200/ 10/ 10   N/A
YORK RVR RNG VA  0100   46     180/ 10/ 11 1023.9R
YORKTOWN VA      0100   46 47  170/  4/  5 1024.2R
DOMINION TERM VA 0100   48     110/  6/  7 1024.6R
KIPTOPEKE VA     0100      51  160/  7/  7   N/A
CHES BAY BRIDGE  0100   45 45  130/  4/  6 1024.3R
CAPE HENRY VA    0100   42     150/  7/  9 1023.5R
CHESAPEAKE LGHT  0100   42     150/ 10/ 11 1025.2R
WILLOUBY STN VA  0100   48     140/  6/  7 1025.0R
S CRANEY ISL VA  0100          120/  5/  5 1024.5R
CAPE HENRY BUOY  0128      42                N/A     3/ 7
1ST LANDING BUOY 0200   44     160/  6/  8 1024.7R   1/ 3
OFFSHORE WE BUOY 0111      42                N/A     4/ 6   3/ 6
64NM E OF VA BCH 0150   46 53  340/  2/  4 1025.2R   4/ 7   3/ 7
DUCK PIER NC     0100   42 43  110/  7/  8 1024.2R
44056 DUCK FRF   0111      43                N/A     3/ 7
OREGON INLET NC  0100   42 47   50/  6/  7 1025.2R
HATTERAS NC      0100   44 57   90/  3/  5 1025.5R
CAPE LOOKOUT NC  0200   54      40/ 20/ 22 1025.4R
$$


USA.gov is the U.S. government's official web portal to all federal, state and local government web resources and services.